Home   Weather   Boulder   Past weeks

Flag for USA Past Weather in Boulder, Colorado, USA — Yesterday and Last 2 Weeks

Now
30 °F

Clear.


Feels Like: 21 °F
Forecast: 25 / 56 °F
Wind: 10 mph from Northwest

Location: Broomfield / Jeffco

Current Time: Apr 30, 2017 at 3:21:04 am

Latest Report: Apr 30, 2017 at 2:54 am


Visibility: 10 mi

Pressure: 30.08 "Hg (24.53 "Hg at 1623m altitude)

Humidity: 59%

Dew Point: 18 °F

Location of BoulderLocation

Past Weather in Boulder — Graph

°F

Boulder Temperature Yesterday

Maximum temperature yesterday: 32 °F (at 1:45 pm)
Minimum temperature yesterday: 28 °F (at 9:30 pm)
Average temperature yesterday: 30 °F

High & Low Weather Summary for the Past Weeks

 TemperatureHumidityPressure
High77 °F (Apr 18, 3:45 pm)100% (Apr 21, 7:30 am)30.32 "Hg (Apr 21, 7:30 am)
Low28 °F (Apr 29, 9:30 pm)12% (Apr 17, 5:47 pm)29.52 "Hg (Apr 27, 4:45 pm)
Average47 °F59%29.94 "Hg
* Reported Apr 15 1:14 am — Apr 30 1:34 am, Boulder, Weather by CustomWeather, © 2017

Note: Actual official high and low records may vary slightly from our data, if they occured in-between our weather recording intervals... More about our weather records

Advertising

Boulder Weather History for the Previous 24 Hours

Scroll right to see more
 ConditionsComfort  
Time TempWeatherWind HumidityBarometerVisibility
1:34 am
Sun, Apr 30
30 °FClear.9 mph64%30.10 "Hg10 mi
1:14 am30 °FClear.7 mph64%30.11 "Hg10 mi
12:53 am30 °FClear.9 mph64%30.12 "Hg10 mi
12:34 am30 °FClear.10 mph64%30.13 "Hg10 mi
12:14 am28 °FClear.9 mph74%30.14 "Hg10 mi
11:53 pm
Sat, Apr 29
28 °FClear.10 mph74%30.14 "Hg10 mi
11:34 pm28 °FClear.10 mph74%30.15 "Hg10 mi
11:14 pm28 °FPassing clouds.10 mph74%30.16 "Hg10 mi
9:47 pm28 °FClear.5 mph93%30.22 "Hg15 mi
9:30 pm28 °FIce fog.6 mph93%30.22 "Hg15 mi
8:47 pm30 °FLight snow. Mostly cloudy.6 mph93%30.22 "Hg2 mi
7:47 pm30 °FLight snow. Ice fog.13 mph93%30.21 "Hg1 mi
7:24 pm30 °FLight snow. Ice fog.10 mph93%30.21 "Hg1 mi
6:47 pm30 °FLight snow. Mostly cloudy.10 mph93%30.21 "Hg1 mi
5:47 pm32 °FLight snow. Mostly cloudy.12 mph87%30.20 "Hg1 mi
4:47 pm32 °FLight snow. Ice fog.18 mph87%30.18 "Hg1 mi
4:14 pm32 °FLight snow. Ice fog.13 mph87%30.18 "Hg1 mi
3:47 pm32 °FLight snow. Ice fog.10 mph93%30.19 "Hg1 mi
2:45 pm32 °FLight snow. Low clouds.13 mph93%30.18 "Hg1 mi
2:21 pm32 °FLight snow. Low clouds.13 mph87%30.18 "Hg1 mi
1:45 pm32 °FLight snow. Low clouds.15 mph87%30.18 "Hg1 mi
12:45 pm30 °FLight snow. Low clouds.15 mph93%30.18 "Hg1 mi
11:45 am30 °FLight snow. Low clouds.13 mph93%30.20 "Hg1 mi
10:45 am30 °FLight snow. Low clouds.12 mph93%30.19 "Hg1 mi
9:45 am30 °FLight snow. Low clouds.12 mph93%30.19 "Hg1 mi
8:45 am30 °FLight snow. Low clouds.12 mph93%30.16 "Hg1 mi
7:45 am30 °FLight snow. Low clouds.10 mph93%30.16 "Hg1 mi
6:45 am30 °FLight snow. Mostly cloudy.13 mph93%30.17 "Hg1 mi
5:54 am30 °FLight snow. Low clouds.13 mph100%30.11 "Hg4 mi
5:32 am30 °FLight snow. Mostly cloudy.9 mph100%30.11 "Hg4 mi
5:14 am30 °FLight snow. Low clouds.12 mph100%30.10 "Hg3 mi
4:54 am30 °FLight snow. Overcast.10 mph100%30.10 "Hg4 mi
4:33 am30 °FLight snow. Mostly cloudy.7 mph100%30.10 "Hg5 mi
4:14 am30 °FLight snow. Mostly cloudy.12 mph100%30.11 "Hg4 mi
3:53 am30 °FLight snow. Low clouds.10 mph100%30.10 "Hg3 mi
3:34 am30 °FLight snow. Mostly cloudy.10 mph93%30.09 "Hg4 mi
3:14 am30 °FLight snow. Mostly cloudy.13 mph100%30.08 "Hg3 mi
Weather by CustomWeather, © 2017

See weather overviewHow to use our weather pages